Zurück zum Katalog

THORAD AGENA D DEB

AktivPO
NORAD 4753·DEBRIS·🇺🇸 United States

Gestartet Apr 8, 1970 von Vandenberg Space Force Base

Loading…

Nächste Überflüge

TLE

Source: Space-Track
1 04753U 70025DB  26228.34800826  .00000688  00000-0  65173-3 0  9991
2 04753  99.9982   3.3903 0008578 151.2267 208.9361 13.85028246811173

Verfolge THORAD AGENA D DEB in Echtzeit mit AllMySat

Download on the App Store